Wind_Speed
26 28 30 31 31 29 26 24 22 23 23 22 24 24 5 7 11 15 14 11 8 11 17 15 16 12 7 9 11 12 11 10 10 7 4 5 4 4 3 2 3 3 1 4
25 28 29 32 32 29 27 22 21 20 23 22 24 18 7 9 9 17 15 12 11 15 15 9 7 9 8 10 9 10 14 10 10 5 5 6 4 5 4 5 7 9 4 4
26 27 29 31 31 30 28 26 20 19 22 22 23 12 10 10 8 12 16 14 12 13 13 13 9 10 9 12 10 11 14 16 9 10 6 7 8 9 8 8 8 12 19 17
26 28 29 30 32 32 30 28 20 17 25 24 24 16 9 13 13 13 12 17 14 14 14 13 12 11 12 13 11 12 12 13 11 10 10 10 12 11 11 14 16 12 18 17
26 27 27 31 33 34 30 20 17 14 11 20 23 20 13 7 15 14 13 10 12 15 16 15 13 10 12 11 13 14 14 10 14 12 13 12 11 12 10 7 8 10 10 11
26 27 27 32 35 37 23 21 18 18 19 23 21 24 15 11 8 9 10 12 13 14 11 11 8 9 7 7 8 11 11 11 11 7 12 11 13 13 11 9 11 16 21 24
25 27 27 32 36 35 16 20 20 21 30 26 21 17 19 14 15 10 10 12 13 15 13 11 10 11 11 11 10 10 11 10 9 5 7 1 8 10 9 11 12 17 18 19
24 26 27 30 34 31 20 19 18 21 18 23 21 17 17 16 16 14 11 13 13 15 14 13 11 13 14 17 18 17 16 13 8 5 8 10 10 16 12 9 13 19 20 22
25 25 27 27 30 27 21 17 15 15 17 21 22 20 18 16 16 14 15 18 18 17 16 16 12 7 9 6 7 18 18 17 16 10 5 6 8 13 13 12 20 9 11 17
24 24 26 26 27 26 22 19 16 15 15 16 20 21 17 16 17 17 17 18 18 17 16 18 17 13 11 8 9 10 16 17 20 19 11 10 15 16 15 10 12 16 19 17
24 22 21 23 23 21 19 17 15 14 14 14 20 20 20 18 18 16 17 17 19 18 17 16 16 12 15 16 17 13 11 10 14 14 10 12 15 17 18 19 25 24 24 22
24 22 20 19 19 18 17 15 14 14 15 13 18 21 18 17 18 17 16 17 14 12 11 15 12 13 13 18 16 19 17 21 15 16 10 15 21 25 25 26 26 28 25 26
23 21 20 19 18 16 16 14 13 13 12 12 16 19 19 18 17 15 15 14 14 14 16 17 15 15 16 17 18 20 21 20 22 24 26 26 25 27 25 26 28 28 28 30
23 21 19 18 17 16 15 15 14 14 13 13 13 16 20 19 18 18 19 18 17 15 16 17 19 20 18 20 21 20 20 19 25 30 31 31 29 27 26 30 31 29 32 33
22 21 19 18 16 15 14 14 14 14 15 8 16 15 17 18 19 19 20 19 19 20 20 22 22 22 24 28 29 30 26 27 31 35 30 33 35 34 31 28 28 30 32 38
23 22 20 19 17 15 14 14 15 15 16 17 15 13 15 20 19 18 19 21 22 23 23 25 27 26 26 23 32 33 27 24 25 30 29 29 29 28 27 27 30 35 33 29
25 24 22 21 20 18 18 17 15 16 16 17 17 18 20 18 18 18 20 21 23 25 27 29 29 29 30 37 39 34 32 31 31 30 29 29 29 29 28 32 33 31 29 23
26 25 24 23 21 21 20 19 19 18 17 19 14 11 16 17 17 18 20 22 24 27 30 31 31 32 32 37 37 34 31 27 28 27 25 24 28 30 32 30 28 26 21 17
25 26 25 23 23 22 22 21 21 22 22 20 22 22 20 21 20 19 19 20 24 28 30 31 32 34 36 36 35 34 28 28 27 26 24 24 26 31 23 25 20 17 16 19
23 22 21 20 20 19 19 20 21 24 26 28 27 25 22 21 20 20 19 20 19 20 24 22 29 39 36 32 30 31 29 25 25 23 25 27 26 27 18 16 18 19 18 22
25 24 21 19 17 17 18 17 14 15 17 25 30 28 29 27 26 24 21 17 13 20 20 20 22 32 32 28 25 24 23 22 21 20 26 23 23 16 18 19 19 17 21 27
26 24 21 21 20 17 13 13 13 14 14 17 17 19 23 28 28 26 23 23 15 12 14 12 14 23 18 16 16 17 20 20 21 22 19 14 18 20 17 16 16 22 27 31
20 22 21 13 13 12 10 15 12 14 18 17 16 16 16 18 18 17 14 11 13 17 10 9 11 8 9 12 12 10 8 10 12 12 12 13 16 16 17 21 24 28 31 32
19 13 9 11 7 10 12 15 18 19 18 19 15 13 9 13 12 14 7 10 8 7 6 5 7 9 12 9 4 4 1 4 8 12 14 12 17 21 23 25 29 32 29 28
11 9 6 9 9 8 6 10 12 14 13 12 10 14 20 14 11 8 8 5 4 4 3 6 8 3 3 4 3 4 6 8 8 11 16 19 22 25 28 30 28 27 26 26
9 8 6 5 6 8 9 10 9 9 8 8 10 14 9 12 7 5 4 3 3 3 2 1 2 4 4 1 5 8 10 13 17 19 20 23 27 29 27 25 26 26 27 29
5 7 8 6 6 6 5 4 4 4 4 7 7 6 7 4 4 6 6 5 3 3 4 5 8 11 10 7 10 13 16 18 20 23 28 28 26 26 26 27 26 29 30 31
Wind_Direction
186 187 184 184 185 183 180 183 186 192 195 193 195 196 160 210 183 177 189 197 184 195 179 199 195 198 211 202 184 184 174 154 148 146 142 157 167 186 178 149 196 164 215 244
184 183 182 185 186 184 180 178 186 193 195 197 196 183 190 208 231 205 202 189 187 169 182 176 187 195 220 207 196 184 176 167 136 158 175 173 179 190 249 247 226 225 181 237
181 180 181 185 183 182 174 172 170 183 194 199 192 171 185 208 201 181 201 185 193 183 197 216 211 214 215 200 204 198 187 182 203 189 168 178 193 207 242 249 239 253 242 260
176 176 178 181 179 176 172 173 174 192 194 192 187 186 210 219 204 193 211 212 215 213 195 216 225 219 214 207 206 204 199 201 203 194 207 223 239 246 247 252 259 261 280 273
174 173 176 176 173 168 161 169 179 184 193 178 185 189 199 207 209 210 218 216 191 205 220 221 218 210 207 209 215 209 210 216 210 218 234 243 242 267 249 228 238 238 260 267
171 169 173 171 170 161 157 165 177 178 179 172 181 201 198 209 205 193 201 189 190 200 218 225 221 227 231 228 231 222 220 221 212 233 235 239 271 220 220 224 243 253 257 265
168 168 169 171 170 168 165 172 175 167 171 178 178 178 201 203 210 220 201 200 204 209 216 221 230 234 251 257 253 241 239 230 220 242 218 270 227 212 258 267 264 273 271 269
164 167 167 171 174 184 163 162 167 181 178 193 194 195 205 207 203 216 224 218 207 224 221 208 213 221 238 250 259 254 244 236 231 235 223 263 231 236 255 248 271 267 269 271
164 165 170 171 179 188 190 186 185 182 186 188 193 205 202 200 206 211 225 220 222 220 225 222 229 228 217 227 234 241 240 236 228 223 222 220 232 223 233 262 279 282 287 288
166 167 166 172 180 189 196 198 203 197 189 192 193 201 205 208 220 228 233 226 227 234 238 238 237 234 226 234 226 235 231 229 228 237 241 254 263 238 235 252 305 304 309 291
168 169 167 173 177 179 186 190 190 190 192 195 200 210 214 213 227 235 231 227 232 238 233 235 241 238 233 239 243 250 246 235 234 231 236 259 243 226 241 292 302 308 311 299
170 172 174 174 176 179 184 187 188 193 197 195 199 211 221 225 230 240 235 232 237 226 230 239 243 238 241 247 239 250 241 253 258 247 257 267 283 287 291 300 302 304 302 297
173 175 178 181 182 184 189 191 192 193 196 197 196 206 217 227 235 236 234 237 249 256 258 256 253 249 256 253 260 261 262 251 248 261 272 278 281 287 287 286 294 294 294 294
179 181 185 187 188 191 197 201 200 201 202 206 208 213 219 225 230 236 246 253 256 253 253 256 256 257 267 266 265 264 270 263 266 267 268 275 274 279 280 286 288 289 292 293
190 191 192 193 195 196 201 209 213 214 209 212 218 219 223 228 232 234 240 245 249 255 260 262 266 269 273 274 272 268 274 277 273 278 278 276 279 280 284 286 287 285 288 294
200 202 204 205 208 211 214 219 222 223 225 228 228 228 230 236 238 240 243 247 251 255 261 263 266 271 274 270 271 284 288 289 286 289 287 282 280 283 285 283 282 285 293 295
205 209 212 215 218 222 225 229 237 236 238 240 246 252 243 244 246 247 251 257 261 264 265 264 269 272 269 269 273 290 292 292 291 287 286 283 282 280 281 282 281 292 296 294
211 216 219 222 225 227 229 234 237 238 239 241 236 231 247 251 253 255 257 259 263 264 264 268 272 273 270 269 288 294 294 290 286 286 286 281 276 275 276 278 285 292 291 285
212 218 222 224 227 231 234 236 238 241 240 240 243 245 254 258 260 259 261 264 266 267 264 268 271 270 265 284 289 290 289 286 286 281 279 274 274 269 273 282 291 279 271 282
209 211 212 218 221 227 231 235 239 242 243 245 245 250 244 256 261 262 260 264 256 256 267 271 262 269 282 286 285 280 280 279 274 271 271 271 256 291 287 293 271 261 275 291
212 214 216 222 223 225 229 231 232 235 240 251 251 251 253 253 254 256 255 254 257 266 268 252 263 268 282 284 283 279 280 276 274 261 260 269 277 269 275 267 259 280 293 303
220 221 219 222 225 231 235 226 224 230 232 235 236 242 245 248 253 251 253 249 253 253 253 238 258 272 278 277 270 266 263 266 267 262 268 269 276 270 259 269 291 294 304 311
202 208 219 220 207 207 217 210 204 213 227 241 251 256 258 258 250 240 237 225 230 242 235 236 250 275 272 271 256 258 247 250 255 264 266 271 270 276 302 292 293 303 310 311
197 204 198 199 200 211 210 209 226 236 243 258 267 261 239 238 225 223 227 227 220 213 231 237 215 227 222 227 185 152 214 276 280 278 277 283 302 295 289 293 301 306 307 309
180 197 218 220 221 224 234 232 232 232 237 245 238 228 218 223 230 226 221 217 214 209 191 140 148 161 90 41 9 326 294 285 288 294 295 287 286 289 295 299 301 302 305 307
184 195 205 198 212 233 249 256 259 260 248 232 218 223 224 223 221 209 208 182 171 142 74 343 33 98 124 286 306 314 306 296 288 281 283 289 294 298 300 301 301 301 304 307
186 196 207 205 213 215 216 217 226 230 229 212 211 211 208 200 210 193 198 175 220 296 327 342 350 360 359 335 293 289 287 286 287 290 293 297 298 300 301 301 302 304 306 305
Height
3049 3055 3061 3067 3073 3078 3084 3089 3095 3099 3104 3109 3109 3113 3116 3118 3120 3121 3123 3125 3126 3127 3130 3132 3134 3136 3137 3138 3139 3140 3142 3144 3146 3149 3149 3149 3149 3149 3151 3151 3153 3152 3152 3152
3047 3052 3058 3064 3070 3076 3081 3088 3093 3097 3102 3105 3108 3114 3115 3117 3118 3120 3122 3124 3125 3127 3129 3131 3133 3134 3136 3137 3139 3140 3141 3143 3145 3148 3150 3149 3148 3149 3149 3149 3150 3150 3152 3149
3045 3050 3055 3062 3068 3074 3080 3086 3090 3095 3099 3103 3108 3111 3114 3115 3117 3118 3120 3123 3124 3126 3128 3129 3132 3133 3135 3136 3138 3139 3140 3140 3142 3143 3143 3145 3146 3146 3146 3146 3146 3145 3145 3145
3043 3048 3054 3059 3065 3072 3078 3083 3088 3093 3095 3100 3105 3110 3113 3114 3116 3118 3119 3122 3123 3125 3127 3128 3130 3132 3134 3136 3137 3138 3139 3139 3140 3141 3141 3142 3143 3143 3143 3142 3142 3142 3140 3139
3042 3047 3052 3057 3064 3070 3077 3083 3087 3091 3095 3100 3104 3107 3110 3112 3114 3117 3119 3121 3121 3123 3125 3127 3128 3130 3132 3134 3135 3136 3137 3137 3138 3139 3139 3139 3139 3139 3137 3138 3137 3137 3135 3134
3041 3046 3051 3056 3063 3070 3076 3080 3084 3089 3092 3098 3102 3105 3109 3111 3114 3116 3117 3119 3121 3123 3125 3127 3128 3129 3132 3132 3133 3134 3135 3136 3137 3137 3136 3137 3136 3133 3133 3133 3133 3132 3131 3130
3041 3046 3051 3056 3063 3069 3074 3079 3084 3088 3092 3097 3100 3104 3108 3109 3112 3114 3116 3118 3121 3123 3124 3126 3127 3129 3129 3130 3131 3132 3132 3133 3134 3133 3134 3135 3128 3129 3129 3130 3128 3126 3125 3124
3041 3046 3052 3057 3063 3069 3074 3079 3084 3087 3091 3095 3099 3102 3104 3107 3111 3113 3115 3117 3120 3121 3123 3125 3126 3128 3129 3128 3128 3129 3130 3130 3131 3131 3129 3127 3125 3124 3125 3124 3125 3122 3122 3121
3042 3047 3052 3058 3064 3069 3074 3078 3083 3087 3090 3094 3097 3099 3103 3105 3109 3111 3113 3115 3117 3119 3121 3123 3123 3124 3124 3124 3124 3123 3125 3126 3128 3126 3125 3123 3118 3119 3120 3120 3118 3118 3119 3117
3042 3047 3053 3058 3063 3068 3073 3077 3081 3085 3088 3091 3095 3097 3100 3103 3106 3109 3110 3113 3115 3117 3118 3119 3120 3120 3121 3120 3119 3119 3120 3121 3121 3121 3121 3116 3114 3115 3116 3117 3117 3112 3112 3111
3043 3048 3053 3057 3062 3067 3072 3076 3080 3083 3086 3089 3092 3095 3098 3101 3104 3106 3108 3111 3111 3113 3115 3116 3116 3116 3116 3115 3115 3115 3117 3117 3116 3116 3116 3112 3109 3109 3111 3111 3107 3105 3104 3103
3042 3048 3052 3057 3062 3066 3071 3075 3078 3081 3085 3088 3090 3092 3095 3099 3101 3104 3105 3106 3108 3109 3110 3111 3111 3111 3111 3110 3110 3111 3112 3111 3112 3112 3108 3105 3104 3103 3102 3101 3100 3099 3097 3096
3042 3047 3052 3056 3061 3065 3070 3073 3076 3079 3082 3086 3088 3089 3092 3095 3097 3099 3101 3103 3104 3106 3107 3108 3108 3108 3107 3106 3105 3105 3105 3105 3104 3103 3102 3101 3098 3096 3095 3094 3093 3091 3090 3087
3041 3046 3051 3056 3060 3064 3067 3071 3074 3077 3080 3082 3085 3086 3088 3091 3093 3095 3097 3098 3099 3101 3102 3102 3103 3103 3103 3101 3101 3101 3102 3099 3098 3094 3094 3094 3092 3091 3090 3088 3086 3084 3081 3079
3040 3045 3050 3054 3058 3062 3065 3069 3072 3075 3080 3080 3082 3083 3085 3087 3088 3090 3092 3093 3095 3095 3096 3096 3097 3097 3097 3094 3093 3092 3095 3094 3091 3087 3089 3086 3086 3085 3082 3080 3078 3076 3073 3070
3039 3044 3048 3052 3056 3060 3063 3066 3070 3072 3074 3077 3079 3080 3081 3083 3084 3086 3088 3089 3089 3090 3091 3091 3089 3092 3092 3086 3080 3085 3087 3086 3084 3081 3080 3078 3077 3075 3073 3072 3071 3068 3066 3064
3037 3042 3046 3050 3054 3057 3060 3064 3067 3068 3071 3073 3074 3075 3077 3078 3080 3082 3083 3084 3085 3085 3084 3083 3084 3084 3083 3077 3073 3078 3078 3077 3074 3072 3070 3068 3068 3067 3066 3064 3062 3061 3059 3058
3034 3038 3043 3047 3050 3054 3057 3059 3062 3064 3066 3068 3069 3069 3073 3074 3075 3077 3078 3078 3079 3077 3076 3075 3076 3075 3073 3066 3068 3069 3068 3066 3063 3063 3062 3062 3061 3059 3057 3055 3054 3053 3053 3052
3029 3034 3039 3043 3046 3050 3052 3055 3057 3059 3063 3060 3061 3065 3068 3069 3071 3072 3073 3073 3072 3069 3067 3068 3067 3064 3059 3061 3061 3059 3060 3058 3056 3054 3054 3053 3052 3050 3049 3049 3049 3048 3047 3046
3026 3032 3035 3039 3042 3046 3049 3051 3052 3052 3053 3053 3056 3059 3062 3066 3066 3067 3069 3066 3065 3060 3060 3060 3055 3049 3052 3054 3052 3050 3050 3049 3047 3046 3045 3045 3043 3042 3043 3043 3043 3042 3041 3040
3023 3028 3033 3037 3039 3042 3045 3046 3046 3046 3045 3045 3048 3053 3055 3057 3059 3061 3062 3058 3058 3054 3054 3053 3045 3039 3043 3043 3042 3041 3040 3040 3040 3041 3039 3038 3038 3038 3038 3037 3037 3037 3036 3034
3021 3026 3031 3033 3035 3038 3040 3038 3039 3038 3039 3038 3041 3044 3047 3049 3052 3054 3052 3052 3051 3047 3044 3043 3036 3036 3035 3036 3035 3035 3034 3034 3035 3035 3033 3034 3034 3033 3033 3033 3033 3032 3029 3025
3017 3021 3025 3027 3029 3030 3029 3029 3029 3030 3030 3032 3036 3040 3043 3043 3046 3046 3044 3042 3040 3039 3037 3034 3032 3032 3031 3031 3031 3030 3031 3032 3031 3032 3031 3031 3031 3030 3029 3028 3026 3024 3021 3017
3014 3016 3019 3021 3020 3020 3021 3023 3025 3027 3029 3030 3032 3034 3036 3036 3039 3038 3036 3035 3034 3033 3032 3029 3029 3030 3027 3027 3027 3028 3028 3029 3029 3029 3028 3027 3027 3026 3025 3023 3020 3017 3013 3010
3013 3016 3015 3016 3017 3018 3019 3021 3023 3024 3025 3027 3028 3029 3032 3032 3033 3031 3030 3029 3028 3028 3028 3027 3028 3027 3026 3027 3027 3027 3027 3027 3026 3026 3026 3025 3023 3021 3019 3016 3012 3009 3006 3003
3011 3012 3013 3014 3016 3017 3018 3019 3019 3021 3021 3023 3025 3025 3026 3026 3027 3026 3026 3027 3026 3026 3026 3026 3026 3025 3026 3026 3026 3025 3025 3025 3023 3022 3020 3019 3016 3014 3012 3009 3005 3002 2999 2995
3009 3010 3011 3013 3015 3015 3016 3017 3017 3018 3019 3021 3022 3022 3022 3022 3023 3024 3023 3023 3024 3023 3023 3022 3022 3021 3022 3023 3022 3022 3021 3020 3018 3016 3014 3011 3009 3006 3003 3001 2998 2994 2991 2987